D1965 Weather Reports


Display with metric or nautical units.
time (UTC)temp
F
wind
direction
speed
MPH
gust
MPH
rain 1hr
in
rain 24hr
in
rain mn
in
humidity
%
barometer
mb
20260510130506 58 30 4.0 11.0 0.00 0.00 0.00 52 1021.0
20260510130004 57 33 3.0 11.0 0.00 0.00 0.00 49 1021.1
20260510125506 58 39 2.0 7.0 0.00 0.00 0.00 50 1021.2
20260510125006 58 33 2.0 9.0 0.00 0.00 0.00 51 1021.1
20260510124506 57 31 3.0 10.0 0.00 0.00 0.00 53 1021.1
20260510124004 58 27 2.0 10.0 0.00 0.00 0.00 53 1021.2
20260510123506 58 24 2.0 10.0 0.00 0.00 0.00 53 1021.3
20260510123006 58 30 3.0 10.0 0.00 0.00 0.00 51 1021.3
20260510122505 58 30 4.0 10.0 0.00 0.00 0.00 53 1021.3
20260510121005 57 28 4.0 13.0 0.00 0.00 0.00 53 1021.6
20260510120506 56 29 4.0 13.0 0.00 0.00 0.00 54 1021.5
20260510120004 56 28 3.0 8.0 0.00 0.00 0.00 59 1021.6
20260510115507 56 28 4.0 10.0 0.00 0.00 0.00 55 1021.6
20260510115005 56 27 4.0 10.0 0.00 0.00 0.00 55 1021.6
20260510114506 56 30 5.0 12.0 0.00 0.00 0.00 53 1021.7
20260510114005 55 32 5.0 12.0 0.00 0.00 0.00 57 1021.8
20260510113005 55 26 4.0 13.0 0.00 0.00 0.00 58 1022.0
20260510112505 54 36 5.0 13.0 0.00 0.00 0.00 60 1022.0
20260510112005 53 37 5.0 9.0 0.00 0.00 0.00 60 1022.1
20260510111506 53 27 3.0 9.0 0.00 0.00 0.00 59 1022.0
20260510111005 53 24 3.0 10.0 0.00 0.00 0.00 60 1022.0
20260510110506 54 33 4.0 10.0 0.00 0.00 0.00 59 1022.2
20260510110005 54 35 5.0 10.0 0.00 0.00 0.00 60 1022.2
20260510105506 53 32 5.0 12.0 0.00 0.00 0.00 59 1022.3
20260510105005 53 30 4.0 12.0 0.00 0.00 0.00 60 1022.3
20260510104505 52 25 3.0 10.0 0.00 0.00 0.00 62 1022.4
20260510104005 53 25 2.0 9.0 0.00 0.00 0.00 61 1022.4
20260510103506 53 28 3.0 9.0 0.00 0.00 0.00 64 1022.4
20260510103005 53 27 4.0 11.0 0.00 0.00 0.00 61 1022.3
20260510102004 55 24 3.0 9.0 0.00 0.00 0.00 61 1022.3
20260510101505 54 30 4.0 10.0 0.00 0.00 0.00 60 1022.4
20260510101004 55 31 3.0 10.0 0.00 0.00 0.00 60 1022.4
20260510100505 54 29 4.0 10.0 0.00 0.00 0.00 65 1022.5
20260510100005 54 29 5.0 11.0 0.00 0.00 0.00 64 1022.5
20260510095004 52 29 4.0 12.0 0.00 0.00 0.00 67 1022.7
20260510094004 51 24 4.0 10.0 0.00 0.00 0.00 65 1022.7
20260510093507 52 27 5.0 10.0 0.00 0.00 0.00 64 1022.8
20260510093005 53 27 5.0 11.0 0.00 0.00 0.00 64 1022.8
20260510092505 52 28 4.0 11.0 0.00 0.00 0.00 65 1022.9
20260510092004 52 28 4.0 10.0 0.00 0.00 0.00 66 1022.9
20260510091505 52 31 5.0 12.0 0.00 0.00 0.00 66 1022.9
20260510090506 52 32 4.0 10.0 0.00 0.00 0.00 66 1022.9
20260510090007 52 36 4.0 9.0 0.00 0.00 0.00 67 1023.0
20260510085506 51 36 4.0 10.0 0.00 0.00 0.00 67 1023.1
20260510084506 51 27 3.0 9.0 0.00 0.00 0.00 70 1023.1
20260510084005 50 28 4.0 10.0 0.00 0.00 0.00 70 1023.1
20260510083505 50 28 3.0 10.0 0.00 0.00 0.00 69 1023.1
20260510083005 50 24 2.0 9.0 0.00 0.00 0.00 71 1023.0
20260510082004 48 23 4.0 9.0 0.00 0.00 0.00 71 1023.1
20260510081005 48 15 2.0 8.0 0.00 0.00 0.00 71 1023.0
20260510080505 48 19 3.0 9.0 0.00 0.00 0.00 73 1022.9
20260510080004 47 25 4.0 11.0 0.00 0.00 0.00 72 1023.0
20260510075505 47 25 5.0 11.0 0.00 0.00 0.00 73 1023.0
20260510075004 46 25 5.0 11.0 0.00 0.00 0.00 73 1023.0
20260510074507 46 24 5.0 12.0 0.00 0.00 0.00 73 1023.0
20260510074005 46 24 5.0 12.0 0.00 0.00 0.00 73 1022.8
20260510073507 46 23 5.0 13.0 0.00 0.00 0.00 73 1022.9
20260510073005 46 24 5.0 13.0 0.00 0.00 0.00 74 1022.9
20260510072507 45 26 4.0 10.0 0.00 0.00 0.00 74 1022.8
20260510072005 45 24 4.0 10.0 0.00 0.00 0.00 75 1022.7
20260510071004 45 25 4.0 10.0 0.00 0.00 0.00 76 1022.6
20260510070506 44 25 4.0 10.0 0.00 0.00 0.00 76 1022.6
20260510065507 44 27 3.0 10.0 0.00 0.00 0.00 78 1022.4
20260510065004 43 28 3.0 10.0 0.00 0.00 0.00 78 1022.6
20260510064005 42 26 3.0 8.0 0.00 0.00 0.00 79 1022.5
20260510063506 42 21 3.0 11.0 0.00 0.00 0.00 80 1022.4
20260510063005 42 19 2.0 11.0 0.00 0.00 0.00 80 1022.4
20260510062507 41 23 2.0 7.0 0.00 0.00 0.00 81 1022.4
20260510062004 41 20 2.0 6.0 0.00 0.00 0.00 81 1022.4
20260510060507 40 12 2.0 8.0 0.00 0.00 0.00 83 1022.4
20260510055506 39 25 1.0 5.0 0.00 0.00 0.00 84 1022.6
20260510055004 38 16 1.0 5.0 0.00 0.00 0.00 85 1022.6
20260510054506 38 17 1.0 5.0 0.00 0.00 0.00 86 1022.8
20260510054005 38 15 1.0 5.0 0.00 0.00 0.00 86 1022.9
20260510053506 37 17 1.0 4.0 0.00 0.00 0.00 87 1023.0
20260510053004 37 22 1.0 4.0 0.00 0.00 0.00 88 1022.9
20260510052505 36 20 1.0 4.0 0.00 0.00 0.00 89 1022.9
20260510052005 36 27 1.0 3.0 0.00 0.00 0.00 89 1022.9
20260510051506 36 34 1.0 3.0 0.00 0.00 0.00 90 1022.8
20260510051005 35 27 1.0 4.0 0.00 0.00 0.00 90 1022.9
20260510050505 35 20 1.0 4.0 0.00 0.00 0.00 90 1022.8
20260510050005 35 20 1.0 3.0 0.00 0.00 0.00 90 1023.0
20260510045506 35 28 1.0 4.0 0.00 0.00 0.00 89 1023.0
20260510045004 35 32 1.0 5.0 0.00 0.00 0.00 89 1023.0
20260510044505 35 33 1.0 5.0 0.00 0.00 0.00 89 1023.0
20260510044004 35 22 2.0 4.0 0.00 0.00 0.00 89 1022.9
20260510043505 35 19 2.0 3.0 0.00 0.00 0.00 89 1023.0
20260510043004 35 18 2.0 6.0 0.00 0.00 0.00 89 1022.9
20260510042505 35 13 2.0 6.0 0.00 0.00 0.00 89 1022.9
20260510041504 35 20 1.0 5.0 0.00 0.00 0.00 89 1022.8
20260510041004 35 22 2.0 5.0 0.00 0.00 0.00 89 1022.8
20260510040506 35 21 1.0 5.0 0.00 0.00 0.00 89 1022.9
20260510040004 35 14 1.0 5.0 0.00 0.00 0.00 89 1022.9
20260510035505 35 10 1.0 4.0 0.00 0.00 0.00 89 1022.9
20260510035004 35 15 0.0 3.0 0.00 0.00 0.00 89 1023.0
20260510034506 35 357 0.0 2.0 0.00 0.00 0.00 89 1023.1
20260510034004 35 348 0.0 2.0 0.00 0.00 0.00 89 1023.1
20260510032504 35 0 0.0 0.0 0.00 0.00 0.00 88 1023.2
20260510032004 35 0 0.0 0.0 0.00 0.00 0.00 88 1023.2
20260510031506 35 0 0.0 0.0 0.00 0.00 0.00 88 1023.2
20260510031004 35 0 0.0 0.0 0.00 0.00 0.00 87 1023.2
20260510030504 35 0 0.0 0.0 0.00 0.00 0.00 86 1023.1
20260510030004 35 37 0.0 2.0 0.00 0.00 0.00 86 1023.2
20260510025505 36 35 1.0 4.0 0.00 0.00 0.00 86 1023.1
20260510024507 36 30 1.0 4.0 0.00 0.00 0.00 85 1023.2
20260510024005 36 29 1.0 5.0 0.00 0.00 0.00 85 1023.2
20260510023505 36 24 2.0 5.0 0.00 0.00 0.00 85 1023.2
20260510022505 37 30 1.0 5.0 0.00 0.00 0.00 85 1023.3
20260510022004 37 30 1.0 4.0 0.00 0.00 0.00 85 1023.3
20260510021505 37 25 1.0 4.0 0.00 0.00 0.00 85 1023.3
20260510020507 37 20 2.0 7.0 0.00 0.00 0.00 84 1023.3
20260510015505 37 21 1.0 6.0 0.00 0.00 0.00 84 1023.3
20260510015004 37 23 1.0 4.0 0.00 0.00 0.00 84 1023.3
20260510014506 37 21 1.0 4.0 0.00 0.00 0.00 84 1023.3
20260510014004 37 28 1.0 5.0 0.00 0.00 0.00 84 1023.5
20260510013004 37 20 1.0 4.0 0.00 0.00 0.00 83 1023.5
20260510012507 37 19 1.0 4.0 0.00 0.00 0.00 83 1023.5
20260510012004 37 19 1.0 4.0 0.00 0.00 0.00 82 1023.5
20260510011505 37 25 1.0 4.0 0.00 0.00 0.00 82 1023.6
20260510011004 38 20 1.0 3.0 0.00 0.00 0.00 82 1023.6
20260510010505 38 18 1.0 3.0 0.00 0.00 0.00 81 1023.7
20260510010004 38 21 2.0 5.0 0.00 0.00 0.00 81 1023.7
20260510005504 38 15 2.0 5.0 0.00 0.00 0.00 80 1023.8
20260510005004 38 13 2.0 5.0 0.00 0.00 0.00 79 1023.7
20260510004504 38 19 3.0 8.0 0.00 0.00 0.00 79 1023.7
20260510004004 39 26 3.0 8.0 0.00 0.00 0.00 78 1023.7
20260510003504 39 26 3.0 8.0 0.00 0.00 0.00 77 1023.7
20260510003004 39 25 3.0 8.0 0.00 0.00 0.00 77 1023.7
20260510002004 39 26 3.0 11.0 0.00 0.00 0.00 76 1023.7
20260510001506 39 23 3.0 11.0 0.00 0.00 0.00 76 1023.6
20260510001004 39 15 3.0 5.0 0.00 0.00 0.00 75 1023.7
20260510000506 40 14 3.0 9.0 0.00 0.00 0.00 75 1023.8
20260510000004 40 19 2.0 9.0 0.00 0.00 0.00 75 1023.7
20260509235505 40 22 2.0 6.0 0.00 0.00 0.00 74 1023.7
20260509235003 40 17 3.0 6.0 0.00 0.00 0.00 74 1023.6
20260509234505 40 19 3.0 6.0 0.00 0.00 0.00 73 1023.6
20260509234004 40 24 3.0 7.0 0.00 0.00 0.00 73 1023.6
20260509233504 40 16 3.0 10.0 0.00 0.00 0.00 72 1023.7
20260509233004 40 16 3.0 10.0 0.00 0.00 0.00 71 1023.6
20260509232506 41 23 2.0 7.0 0.00 0.00 0.00 71 1023.7
20260509232004 41 21 3.0 9.0 0.00 0.00 0.00 70 1023.6
20260509231505 41 20 3.0 9.0 0.00 0.00 0.00 70 1023.7
20260509230505 41 22 2.0 5.0 0.00 0.00 0.00 69 1023.6
20260509230004 41 24 2.0 5.0 0.00 0.00 0.00 69 1023.7
20260509225504 41 25 2.0 7.0 0.00 0.00 0.00 68 1023.7
20260509225004 42 26 2.0 7.0 0.00 0.00 0.00 68 1023.6
20260509224004 42 19 3.0 7.0 0.00 0.00 0.00 67 1023.6
20260509223003 42 27 3.0 8.0 0.00 0.00 0.00 67 1023.6
20260509222504 42 27 3.0 8.0 0.00 0.00 0.00 67 1023.6
20260509222003 42 28 3.0 9.0 0.00 0.00 0.00 68 1023.5
20260509221504 42 30 3.0 9.0 0.00 0.00 0.00 68 1023.5
20260509221004 41 28 2.0 6.0 0.00 0.00 0.00 70 1023.5
20260509220505 41 20 2.0 5.0 0.00 0.00 0.00 71 1023.5
20260509220004 41 18 1.0 5.0 0.00 0.00 0.00 71 1023.5
20260509215505 41 15 0.0 3.0 0.00 0.00 0.00 72 1023.6
20260509215006 41 22 1.0 3.0 0.00 0.00 0.00 72 1023.5
20260509214506 42 27 1.0 4.0 0.00 0.00 0.00 72 1023.6
20260509213507 42 25 0.0 4.0 0.00 0.00 0.00 72 1023.5
20260509213006 42 20 0.0 2.0 0.00 0.00 0.00 73 1023.4
20260509212506 42 20 0.0 2.0 0.00 0.00 0.00 72 1023.4
20260509212005 42 24 0.0 3.0 0.00 0.00 0.00 72 1023.5
20260509211507 43 24 1.0 3.0 0.00 0.00 0.00 71 1023.5
20260509211006 43 24 0.0 3.0 0.00 0.00 0.00 71 1023.4
20260509210506 43 0 0.0 0.0 0.00 0.00 0.00 70 1023.3
20260509210005 44 9 0.0 1.0 0.00 0.00 0.00 70 1023.1
20260509205005 44 20 0.0 3.0 0.00 0.00 0.00 68 1023.1
20260509204506 45 26 0.0 3.0 0.00 0.00 0.00 67 1023.1
20260509204005 45 12 1.0 3.0 0.00 0.00 0.00 66 1022.9
20260509203507 46 4 1.0 4.0 0.00 0.00 0.00 66 1022.8
20260509203005 46 15 1.0 4.0 0.00 0.00 0.00 65 1022.8
20260509202506 47 19 1.0 5.0 0.00 0.00 0.00 64 1022.7
20260509202005 47 26 1.0 5.0 0.00 0.00 0.00 63 1022.8
20260509200507 48 28 2.0 7.0 0.00 0.00 0.00 61 1022.6
20260509200006 49 24 2.0 8.0 0.00 0.00 0.00 60 1022.6
20260509195507 49 22 3.0 10.0 0.00 0.00 0.00 60 1022.6
20260509194507 50 25 3.0 10.0 0.00 0.00 0.00 59 1022.4
20260509194005 50 20 3.0 9.0 0.00 0.00 0.00 58 1022.3
20260509193006 51 26 3.0 8.0 0.00 0.00 0.00 58 1022.2
20260509192506 51 26 3.0 8.0 0.00 0.00 0.00 57 1022.2
20260509192006 51 25 3.0 8.0 0.00 0.00 0.00 57 1022.1
20260509191005 52 30 5.0 11.0 0.00 0.00 0.00 56 1022.0
20260509185507 53 28 6.0 12.0 0.00 0.00 0.00 55 1022.0
20260509185005 53 27 5.0 11.0 0.00 0.00 0.00 54 1021.9
20260509184506 53 27 4.0 11.0 0.00 0.00 0.00 55 1021.8
20260509184005 54 28 5.0 13.0 0.00 0.00 0.00 54 1021.8
20260509183507 54 28 5.0 13.0 0.00 0.00 0.00 53 1021.7
20260509183005 54 27 5.0 13.0 0.00 0.00 0.00 53 1021.6
20260509182506 55 27 4.0 11.0 0.00 0.00 0.00 53 1021.6
20260509182005 55 30 5.0 13.0 0.00 0.00 0.00 54 1021.6
20260509181505 55 29 5.0 13.0 0.00 0.00 0.00 53 1021.5
20260509181005 55 26 5.0 12.0 0.00 0.00 0.00 52 1021.3
20260509180506 55 28 6.0 14.0 0.00 0.00 0.00 51 1021.3
20260509180006 56 30 6.0 14.0 0.00 0.00 0.00 52 1021.3
20260509175506 56 31 6.0 17.0 0.00 0.00 0.00 52 1021.2
20260509175005 56 34 7.0 17.0 0.00 0.00 0.00 51 1021.1
20260509174506 56 35 6.0 13.0 0.00 0.00 0.00 52 1021.2
20260509174005 56 31 5.0 13.0 0.00 0.00 0.00 50 1021.4
20260509173506 57 29 5.0 12.0 0.00 0.00 0.00 51 1021.1
20260509173005 57 23 5.0 12.0 0.00 0.00 0.00 51 1021.1
20260509172005 57 35 5.0 13.0 0.00 0.00 0.00 50 1021.1
20260509171506 57 30 5.0 11.0 0.00 0.00 0.00 52 1021.2
20260509171005 57 27 5.0 10.0 0.00 0.00 0.00 51 1021.1
20260509170005 58 31 5.0 14.0 0.00 0.00 0.00 50 1021.2
20260509165506 58 31 5.0 15.0 0.00 0.00 0.00 50 1021.2
20260509164505 58 27 4.0 13.0 0.00 0.00 0.00 49 1021.2
20260509164005 58 27 4.0 13.0 0.00 0.00 0.00 49 1021.0
20260509163506 58 26 5.0 14.0 0.00 0.00 0.00 50 1021.1
20260509163005 59 25 5.0 14.0 0.00 0.00 0.00 50 1021.0
20260509162506 59 30 5.0 13.0 0.00 0.00 0.00 49 1021.0
20260509162005 59 32 5.0 13.0 0.00 0.00 0.00 48 1020.9
20260509161507 59 27 5.0 13.0 0.00 0.00 0.00 50 1021.1
20260509160507 60 32 4.0 12.0 0.00 0.00 0.00 50 1021.0
20260509160005 60 27 3.0 10.0 0.00 0.00 0.00 51 1020.8
20260509155506 60 28 5.0 13.0 0.00 0.00 0.00 49 1020.9
20260509155005 60 31 5.0 13.0 0.00 0.00 0.00 50 1020.9
20260509154506 60 30 5.0 13.0 0.00 0.00 0.00 49 1020.9
20260509154005 60 30 5.0 14.0 0.00 0.00 0.00 48 1021.0
20260509153506 60 28 5.0 14.0 0.00 0.00 0.00 49 1021.0
20260509153005 60 28 4.0 11.0 0.00 0.00 0.00 49 1020.9
20260509152506 60 30 5.0 15.0 0.00 0.00 0.00 50 1020.7
20260509152005 60 30 5.0 15.0 0.00 0.00 0.00 49 1020.8
20260509151506 60 25 3.0 11.0 0.00 0.00 0.00 50 1021.0
20260509151005 59 23 4.0 12.0 0.00 0.00 0.00 55 1021.0
20260509150005 59 24 4.0 14.0 0.00 0.00 0.00 50 1021.1
20260509145505 59 23 3.0 12.0 0.00 0.00 0.00 51 1021.1
20260509145005 59 28 3.0 12.0 0.00 0.00 0.00 53 1021.1
20260509144506 59 32 5.0 13.0 0.00 0.00 0.00 54 1021.1
20260509144005 60 31 4.0 14.0 0.00 0.00 0.00 50 1021.1
20260509143506 60 30 2.0 14.0 0.00 0.00 0.00 53 1021.1
20260509143005 60 29 4.0 12.0 0.00 0.00 0.00 54 1021.2
20260509142506 60 29 5.0 13.0 0.00 0.00 0.00 54 1021.2
20260509142004 60 31 4.0 13.0 0.00 0.00 0.00 52 1021.3
20260509141505 60 29 3.0 12.0 0.00 0.00 0.00 50 1021.3
20260509135506 60 24 2.0 11.0 0.00 0.00 0.00 53 1021.3
20260509135005 60 24 2.0 10.0 0.00 0.00 0.00 53 1021.3
20260509134506 60 26 2.0 11.0 0.00 0.00 0.00 56 1021.2
20260509134005 59 28 4.0 13.0 0.00 0.00 0.00 53 1021.3
20260509133506 59 32 4.0 13.0 0.00 0.00 0.00 55 1021.2
20260509133005 60 28 4.0 12.0 0.00 0.00 0.00 56 1021.2
20260509132507 59 25 3.0 10.0 0.00 0.00 0.00 54 1021.3
20260509131506 59 24 5.0 12.0 0.00 0.00 0.00 55 1021.3
20260509131004 59 27 4.0 11.0 0.00 0.00 0.00 56 1021.2